Location: *
(44.3683°N, 6.6958°E)
Time: 18:48:30
(UTC+00:00)

Cosmos 1727 Rocket - Pass Details

Date: 14 October 2019
Orbit: 961 x 996 km, 82.9° (Epoch: 22 November)

Event Time Altitude Azimuth Distance (km) Brightness Sun altitude
Rises 19:25:13 0° 198° (SSW) 3,647 7.0 -28.0°
Reaches altitude 10° 19:27:46 10° 202° (SSW) 2,700 6.3 -28.5°
Maximum altitude 19:33:50 58° 282° (WNW) 1,112 4.5 -29.5°
Drops below altitude 10° 19:39:56 10° 1° (N) 2,707 6.5 -30.5°
Sets 19:42:30 0° 5° (N) 3,657 7.2 -31.0°
